Location: Newark
(46.9000°N, 28.3500°E)
Time: 09:58:25
(UTC+00:00)

Explorer 7 - Pass Details

Date: 29 August 2019
Orbit: 485 x 680 km, 50.3° (Epoch: 17 September)

Event Time Altitude Azimuth Distance (km) Brightness Sun altitude
Rises 11:46:13 0° 288° (WNW) 2,910 10.7 47.0°
Reaches altitude 10° 11:49:02 10° 273° (W) 1,961 10.1 46.7°
Maximum altitude 11:52:22 21° 225° (SW) 1,351 10.2 46.4°
Drops below altitude 10° 11:55:33 10° 176° (S) 1,858 10.1 46.0°
Sets 11:58:08 0° 160° (SSE) 2,710 10.6 45.7°
